Wind_Speed
29 34 28 23 26 21 13 13 20 30 37 46 48 60 59 56 60 48 49 50 44 32 37 35 37 39 46 49 52 64 59 60 57 58 50 55 44 49 49 46 26 47 48 44 41 37 34 22 20 23 22 28 31 27
25 26 8 16 17 4 9 10 16 32 40 46 46 59 51 53 51 48 50 46 42 33 37 39 27 25 35 38 51 62 47 53 54 54 51 55 46 48 50 54 34 39 45 42 42 40 27 27 21 20 24 33 33 31
19 16 7 10 10 11 12 19 26 36 36 42 47 52 60 53 48 44 42 40 37 34 31 36 32 28 32 39 57 62 51 49 53 51 50 48 46 45 39 44 51 41 39 44 42 36 33 27 23 25 25 31 36 35
15 13 4 6 8 15 18 24 28 32 36 43 54 58 53 48 48 42 34 32 32 34 32 28 30 31 33 30 47 58 48 46 52 50 50 49 47 50 45 41 49 46 48 42 42 36 38 33 24 27 32 32 35 39
17 16 11 16 18 18 20 26 29 31 42 53 51 53 48 41 41 37 34 29 32 37 33 24 24 35 42 38 47 50 49 47 45 45 50 49 45 49 50 45 46 44 46 46 46 39 35 29 29 32 31 30 30 32
24 25 20 16 12 18 26 32 35 41 54 46 47 45 39 33 33 36 33 32 28 29 33 28 33 25 30 39 36 45 50 41 42 46 44 43 36 40 39 46 40 40 43 46 43 44 36 32 30 30 28 31 29 31
23 28 29 35 42 43 47 50 50 49 45 41 40 38 35 36 35 34 29 21 22 23 44 29 18 26 32 33 38 37 39 42 41 45 45 39 35 33 33 33 28 33 36 39 42 46 42 35 34 29 31 33 32 32
22 25 27 30 37 40 41 42 41 39 37 36 36 37 39 36 32 29 26 20 29 40 45 35 29 29 31 27 31 38 36 38 41 42 41 36 32 28 30 27 26 28 31 30 37 41 38 40 37 34 36 36 34 36
24 27 27 27 27 29 31 31 31 32 33 36 36 36 34 31 27 23 22 29 49 48 34 35 37 30 28 32 33 38 37 36 35 36 36 35 32 32 29 23 24 25 26 29 27 30 33 35 35 34 34 38 37 33
25 27 27 30 30 29 27 26 27 27 27 26 26 25 24 23 23 23 26 31 46 36 32 36 31 25 25 28 36 38 36 32 32 28 26 31 31 36 32 25 24 25 26 29 33 36 37 37 39 40 41 39 39 38
27 28 29 28 27 27 26 25 24 23 24 23 23 22 23 24 22 29 32 36 51 35 36 32 38 33 27 22 31 22 25 29 26 24 24 24 25 32 26 25 25 27 28 27 30 34 36 38 38 39 42 46 46 47
31 31 33 34 33 33 32 31 28 27 24 22 19 19 21 18 21 24 41 43 53 41 29 36 33 33 26 26 27 25 21 27 23 21 20 20 16 17 20 22 26 28 30 30 29 33 38 40 42 42 42 44 44 45
34 35 36 36 35 33 30 27 25 25 24 26 29 23 28 29 33 43 52 51 57 39 33 36 27 16 17 17 26 24 19 15 18 18 18 13 15 19 20 19 18 23 29 32 34 37 38 38 39 41 41 39 42 46
32 34 33 31 30 27 25 21 21 23 21 21 20 31 29 37 45 38 38 51 49 39 36 36 31 30 27 22 21 24 26 21 16 16 12 11 5 5 10 19 23 25 26 27 30 34 37 37 37 41 39 43 46 45
32 35 35 27 22 20 20 20 21 22 21 26 30 34 29 33 40 41 38 40 43 45 32 32 28 25 21 21 25 24 23 24 21 17 16 14 14 15 15 18 18 20 26 28 30 30 38 42 40 42 51 50 47 45
26 21 21 20 22 30 30 28 27 23 24 15 8 3 12 24 45 51 55 47 43 36 32 27 24 22 18 22 18 23 23 25 25 23 22 23 22 22 22 21 21 21 22 28 36 42 42 38 37 40 39 42 43 42
26 25 32 37 34 31 24 24 24 17 13 12 22 25 30 34 41 41 39 39 37 35 31 26 18 17 19 20 17 13 15 21 19 19 22 25 24 23 26 27 28 29 28 30 32 34 37 38 38 38 38 39 41 44
30 36 39 40 31 25 29 27 25 23 23 25 27 28 29 29 36 36 35 31 29 31 28 26 23 19 17 21 27 26 24 25 26 27 26 24 25 26 25 27 29 29 29 31 33 35 35 38 43 48 49 49 49 47
16 15 20 17 24 24 22 22 23 27 26 26 26 25 23 23 23 23 22 21 19 18 20 21 17 16 17 17 18 20 22 26 28 29 28 27 29 29 27 27 28 30 32 34 35 38 40 43 44 46 49 52 54 56
24 22 21 24 24 22 21 20 20 18 18 19 19 19 19 19 19 18 17 17 18 18 17 16 13 13 14 15 17 18 19 21 22 24 25 26 28 30 31 32 34 36 38 40 42 44 46 49 52 55 57 59 61 63
15 17 19 16 16 17 16 15 15 16 16 16 17 18 17 15 15 14 12 11 10 10 9 10 12 14 15 18 20 22 24 26 28 30 32 34 35 37 39 40 41 43 45 47 48 50 51 53 55 56 58 60 62 63
15 14 15 17 17 13 12 13 12 11 11 11 11 11 9 8 7 6 5 5 5 6 7 9 11 14 16 19 22 25 28 30 33 36 38 40 41 43 44 45 47 48 50 51 52 53 55 56 58 59 61 62 63 64
9 9 11 13 14 12 7 5 7 9 7 7 7 6 5 4 3 3 3 2 4 6 9 12 15 19 24 28 31 33 34 35 36 38 40 43 45 47 49 50 52 53 54 55 57 58 59 60 61 62 63 63 64 64
8 6 6 9 9 6 6 8 7 7 6 5 4 4 3 4 6 7 9 12 14 18 19 23 29 32 33 35 37 40 42 45 47 50 52 54 54 54 52 52 52 52 53 54 55 55 56 56 56 56 56 57 59 60
8 9 9 10 9 8 6 5 4 2 0 2 4 7 9 11 13 15 17 19 22 25 28 32 35 37 39 44 48 50 52 55 57 57 55 52 50 49 48 48 48 48 48 47 47 48 49 50 52 54 55 56 56 55
13 11 9 7 6 4 3 1 2 4 7 8 10 13 16 18 21 23 26 29 31 34 37 40 42 46 50 53 55 56 55 52 49 45 44 42 42 42 43 44 45 46 47 48 49 50 51 51 51 50 49 48 47 45
12 10 7 5 3 3 6 8 9 10 12 14 17 19 22 24 27 28 30 33 35 38 42 46 50 54 55 52 48 45 43 43 43 43 43 43 44 44 45 45 46 46 46 45 45 44 42 40 39 38 36 35 37 40
7 6 6 7 8 9 11 12 14 16 18 20 23 24 26 27 28 30 33 37 41 46 49 51 48 46 44 43 43 42 41 40 39 39 38 37 36 35 34 33 32 31 30 30 30 30 28 27 28 32 33 36 40 42
10 11 12 13 14 15 16 17 19 21 23 24 24 24 25 28 32 36 41 44 48 48 44 44 44 43 40 37 33 31 28 26 25 24 23 23 24 24 25 25 25 24 20 18 20 23 24 27 31 33 35 39 41 40
16 16 16 16 17 17 19 20 22 22 22 23 25 28 31 35 39 42 45 45 42 43 43 41 36 31 27 25 23 22 21 22 22 23 25 24 24 21 16 11 12 14 15 18 21 23 26 29 31 34 36 37 36 36
17 17 18 19 19 22 23 22 20 21 24 27 30 34 37 39 42 42 41 41 43 40 33 28 26 25 25 25 24 24 24 24 24 22 20 13 7 8 8 10 13 15 18 20 23 25 28 30 32 34 36 37 37 36
20 20 21 23 23 21 19 21 24 26 29 31 34 37 39 40 40 40 41 41 35 29 28 29 28 27 26 25 24 22 21 20 17 7 4 4 5 8 10 13 16 18 21 24 26 28 30 32 34 36 37 38 38 38
22 21 19 19 20 21 23 24 27 30 32 34 36 38 38 39 37 40 38 33 29 29 30 30 30 28 26 24 21 17 9 3 3 2 2 5 7 10 13 16 19 22 25 27 29 31 32 33 35 37 38 39 40 40
Wind_Direction
304 310 321 317 321 310 300 212 193 186 190 182 184 185 185 186 181 187 194 202 201 203 200 207 214 214 212 223 217 201 200 212 211 212 214 217 217 217 214 196 201 213 220 217 223 227 223 224 230 241 233 233 242 243
320 329 301 343 348 22 150 150 161 171 165 172 176 178 184 171 178 186 193 199 194 192 200 202 203 211 221 223 211 210 214 209 215 213 215 218 218 220 212 203 198 196 216 220 225 228 233 237 242 248 239 229 238 249
349 12 3 6 32 74 144 143 141 148 158 163 170 173 173 172 172 176 186 193 193 188 190 198 200 205 212 211 199 200 205 203 208 211 218 222 226 221 224 216 215 205 207 219 227 226 234 235 236 247 246 241 238 242
6 9 271 331 83 107 107 125 141 148 156 163 157 165 164 163 171 177 185 186 195 191 194 202 209 211 194 205 206 198 197 206 208 209 215 217 222 221 229 228 222 217 215 221 231 226 232 234 234 243 249 248 248 250
32 44 76 107 106 111 124 132 131 135 143 141 149 149 150 157 166 173 173 178 189 199 208 212 214 199 186 193 195 196 201 207 207 211 218 218 221 221 227 231 226 222 220 225 228 230 229 215 232 247 254 259 259 259
65 62 100 97 96 115 125 135 142 138 140 146 147 152 149 153 157 157 163 184 188 191 172 171 177 185 192 195 184 196 202 207 207 216 223 226 225 227 225 228 232 238 236 230 229 241 229 225 233 246 255 263 260 261
88 76 88 100 109 110 113 113 127 142 149 150 148 149 153 151 156 168 175 180 186 181 168 164 165 164 158 182 187 191 200 207 211 217 222 226 229 236 237 232 228 236 234 232 235 240 235 225 223 237 250 263 264 268
105 98 93 96 112 120 125 124 127 130 134 144 153 152 152 158 164 166 167 167 172 163 165 169 165 139 143 157 184 195 200 206 213 218 221 223 227 235 240 232 230 233 234 235 237 242 245 240 247 242 248 255 267 270
118 116 116 113 117 121 130 134 139 143 147 150 150 154 160 164 162 166 169 164 157 160 154 152 155 155 152 169 181 192 198 208 214 219 222 227 231 238 245 243 239 236 241 240 239 245 251 257 254 248 250 256 264 262
120 123 124 124 126 125 126 128 133 138 141 146 152 160 166 172 175 175 170 172 176 159 143 143 131 156 159 169 175 186 198 208 218 219 221 229 231 239 244 246 244 241 236 239 242 242 247 252 252 249 255 257 259 261
122 122 121 127 130 134 135 135 138 145 154 159 165 167 169 179 188 190 183 177 178 160 144 132 131 137 155 145 164 159 190 195 203 205 218 227 227 245 247 246 246 244 241 245 245 241 244 250 255 254 255 257 264 273
117 125 129 127 126 129 130 128 133 139 140 147 159 176 168 126 180 196 182 175 185 178 157 159 151 149 149 154 168 164 157 178 187 201 206 221 220 231 240 249 248 245 244 248 252 248 246 249 253 256 258 259 265 269
126 123 122 120 118 118 126 135 137 137 139 139 140 155 145 164 162 156 157 169 172 167 163 163 162 175 173 170 179 196 202 172 174 192 209 221 230 239 245 251 255 252 248 250 252 254 256 256 257 257 261 269 267 278
133 126 124 119 124 128 124 123 121 130 132 132 135 162 157 159 161 158 153 158 166 173 166 167 171 179 179 179 184 195 207 208 191 196 205 222 190 235 264 255 253 256 255 257 261 264 265 267 269 262 266 262 264 271
125 123 115 120 116 117 126 126 126 128 137 128 115 123 135 153 162 162 148 148 151 150 151 154 146 154 168 190 204 212 216 227 233 244 244 257 259 262 259 248 253 263 258 254 259 259 254 249 255 253 260 265 265 265
136 132 124 114 122 130 130 132 126 132 141 121 14 75 142 143 161 143 144 150 154 155 150 151 156 162 172 174 200 213 220 231 242 252 254 255 260 265 267 269 272 269 268 264 259 254 248 251 257 256 254 259 267 269
132 132 135 138 141 136 130 103 87 80 61 82 100 108 123 135 157 173 178 169 158 154 150 152 159 179 186 204 216 218 221 235 228 243 252 260 261 258 258 262 262 263 261 266 264 262 263 267 270 270 270 271 270 269
126 136 139 137 127 107 95 84 93 95 94 95 107 109 109 130 132 131 132 140 154 155 164 173 181 201 214 221 224 228 231 238 252 259 259 258 261 259 258 260 256 255 256 258 259 259 260 262 265 266 267 269 271 271
104 115 131 111 96 93 88 80 84 87 90 94 99 103 112 120 129 136 150 157 165 182 193 209 220 224 229 240 242 243 247 248 249 250 257 260 261 263 259 260 263 263 262 264 265 265 267 269 270 271 273 275 276 277
89 94 111 104 96 95 92 97 92 90 96 101 105 109 115 120 126 134 144 159 178 194 208 214 222 228 234 238 242 251 258 260 260 261 259 260 262 265 267 268 268 269 268 268 267 268 268 268 269 270 272 273 275 276
91 98 107 124 113 104 99 97 107 107 106 106 105 107 109 115 121 129 135 146 163 183 204 222 238 246 255 262 265 268 269 270 271 270 271 271 271 271 271 271 271 271 271 271 271 272 272 273 274 276 278 279 280 282
115 110 112 114 117 120 129 121 118 114 114 118 120 115 122 126 131 133 147 170 197 222 242 254 261 266 270 273 275 277 278 279 280 280 280 280 280 280 281 282 282 282 282 282 282 282 282 282 282 282 282 283 283 285
135 127 125 125 126 141 131 122 115 105 105 98 110 107 99 91 75 50 53 13 341 330 328 325 321 318 315 312 309 306 303 299 294 291 288 286 285 285 285 285 285 285 285 284 283 283 283 283 284 285 286 287 288 289
174 136 132 115 117 123 115 124 114 99 79 71 59 48 18 7 347 330 324 319 317 316 315 316 318 316 313 311 309 307 303 299 297 296 295 295 293 291 288 285 283 281 281 281 281 282 283 285 286 287 288 289 290 291
183 148 146 142 145 135 137 125 116 103 332 325 323 320 319 315 315 312 310 310 308 307 309 312 313 311 309 307 307 303 300 296 294 292 291 288 286 284 284 284 285 285 287 287 288 289 289 290 291 292 293 295 296 296
171 167 158 156 150 156 155 213 278 298 304 310 314 316 319 318 315 312 310 309 308 307 307 307 307 306 305 303 300 296 291 288 287 287 287 286 285 284 285 285 285 286 287 288 289 290 292 293 294 296 297 297 299 301
170 166 170 186 222 263 285 287 293 302 307 311 313 318 317 317 316 314 312 309 307 306 306 306 306 307 303 297 293 292 290 289 287 286 285 285 285 285 286 286 287 288 290 291 293 294 296 297 299 301 302 304 305 307
189 217 247 265 276 282 289 294 299 304 308 310 314 317 318 315 312 310 309 310 312 313 313 311 306 300 297 294 291 289 288 288 287 287 288 289 290 291 292 293 295 297 299 301 302 303 305 307 308 310 311 310 310 310
241 252 264 275 282 288 291 295 298 302 307 311 312 309 307 308 311 314 315 316 316 314 308 306 302 299 297 295 294 293 293 293 295 296 297 297 299 301 302 302 302 304 307 311 312 313 315 315 314 315 316 316 315 316
265 271 273 276 280 285 290 294 299 304 304 303 305 309 313 316 317 318 317 317 313 310 308 304 303 302 301 300 299 298 297 297 297 298 298 299 300 302 304 310 313 315 318 318 318 319 319 321 322 324 325 326 323 324
263 267 272 277 282 289 293 294 295 298 304 309 313 316 318 319 317 317 316 313 313 309 307 306 304 302 300 298 296 294 295 296 297 299 302 303 304 308 315 321 323 324 323 323 323 324 325 327 328 331 332 333 332 328
263 267 273 278 282 284 287 292 299 305 310 313 315 316 317 317 316 314 313 313 311 309 307 305 302 299 297 295 294 295 295 296 297 289 282 297 313 322 326 326 326 326 327 326 325 325 325 327 329 331 333 333 333 332
263 265 268 273 277 283 291 298 303 307 310 313 316 317 316 314 314 314 315 314 312 311 309 306 304 301 298 295 293 290 285 239 222 250 290 315 320 321 320 321 322 323 324 325 325 325 325 325 326 328 330 331 332 331
Height
5311 5303 5292 5283 5272 5260 5252 5249 5251 5258 5269 5284 5301 5321 5341 5359 5373 5389 5408 5421 5433 5441 5449 5458 5466 5472 5481 5491 5501 5520 5529 5538 5552 5561 5570 5578 5582 5589 5594 5604 5612 5616 5624 5629 5636 5637 5642 5651 5653 5655 5662 5656 5656 5659
5305 5296 5288 5281 5272 5263 5258 5256 5255 5262 5275 5291 5304 5323 5340 5357 5371 5389 5406 5418 5428 5437 5446 5454 5461 5466 5474 5484 5500 5512 5530 5540 5550 5558 5564 5572 5577 5581 5588 5596 5601 5610 5616 5621 5628 5632 5641 5644 5647 5648 5649 5651 5651 5651
5302 5293 5288 5283 5277 5271 5268 5267 5270 5277 5287 5298 5312 5326 5344 5360 5375 5392 5405 5415 5424 5434 5443 5451 5457 5464 5470 5478 5487 5502 5517 5531 5540 5550 5557 5566 5572 5579 5582 5590 5594 5601 5605 5612 5619 5626 5631 5636 5639 5639 5641 5642 5643 5644
5302 5294 5289 5287 5282 5280 5279 5279 5282 5288 5296 5305 5319 5336 5352 5367 5381 5396 5406 5416 5425 5434 5440 5446 5452 5461 5469 5473 5485 5503 5517 5522 5531 5542 5549 5559 5567 5573 5577 5582 5587 5595 5600 5608 5612 5619 5621 5626 5632 5632 5630 5631 5632 5634
5304 5296 5291 5289 5289 5288 5288 5291 5295 5301 5308 5321 5334 5348 5361 5374 5386 5397 5407 5416 5424 5433 5439 5444 5449 5456 5465 5472 5484 5500 5514 5522 5533 5540 5545 5553 5561 5568 5572 5577 5583 5591 5597 5601 5607 5614 5612 5618 5620 5621 5622 5625 5626 5625
5312 5305 5301 5299 5296 5296 5299 5302 5308 5317 5328 5339 5351 5361 5372 5382 5392 5400 5408 5416 5424 5430 5438 5444 5451 5456 5463 5474 5484 5499 5511 5522 5531 5537 5544 5551 5560 5562 5567 5571 5582 5586 5588 5592 5596 5597 5603 5608 5612 5614 5615 5615 5616 5617
5320 5317 5314 5312 5309 5311 5314 5319 5326 5336 5346 5354 5363 5372 5379 5387 5395 5404 5413 5420 5424 5429 5438 5447 5452 5453 5458 5471 5484 5497 5509 5520 5527 5534 5541 5548 5555 5557 5561 5565 5576 5576 5578 5582 5585 5589 5594 5596 5600 5603 5605 5606 5607 5607
5327 5327 5327 5327 5328 5330 5333 5338 5344 5351 5359 5365 5371 5378 5385 5393 5401 5408 5415 5418 5420 5427 5439 5446 5451 5456 5461 5472 5485 5498 5508 5515 5522 5528 5537 5545 5550 5552 5555 5564 5567 5568 5571 5575 5578 5580 5583 5586 5588 5592 5595 5597 5597 5597
5334 5335 5336 5338 5341 5343 5346 5351 5356 5362 5367 5373 5379 5385 5391 5397 5404 5411 5416 5420 5424 5432 5438 5445 5450 5462 5467 5476 5486 5496 5505 5511 5520 5527 5534 5540 5545 5546 5549 5553 5558 5561 5565 5568 5571 5574 5576 5577 5579 5582 5584 5585 5586 5586
5341 5343 5345 5347 5350 5353 5356 5360 5365 5370 5375 5380 5385 5390 5395 5400 5406 5411 5417 5425 5429 5432 5438 5445 5450 5461 5471 5478 5485 5494 5503 5511 5518 5526 5531 5533 5538 5537 5541 5547 5550 5553 5557 5560 5562 5565 5566 5568 5569 5571 5572 5574 5575 5575
5348 5350 5352 5355 5358 5362 5365 5368 5372 5376 5379 5383 5387 5391 5395 5399 5404 5410 5417 5424 5429 5434 5439 5446 5452 5461 5474 5482 5489 5496 5503 5508 5515 5521 5525 5528 5531 5531 5537 5539 5542 5546 5549 5551 5553 5555 5556 5558 5559 5560 5562 5562 5562 5561
5356 5358 5360 5362 5365 5368 5371 5373 5376 5379 5382 5386 5389 5392 5395 5401 5401 5404 5412 5424 5428 5437 5444 5448 5455 5464 5472 5479 5487 5491 5498 5505 5511 5517 5521 5523 5526 5528 5530 5533 5536 5538 5541 5542 5543 5544 5546 5547 5548 5549 5549 5550 5550 5549
5364 5367 5370 5373 5374 5376 5377 5379 5381 5385 5388 5391 5393 5393 5397 5400 5402 5407 5414 5421 5434 5445 5449 5454 5462 5467 5475 5484 5489 5492 5496 5502 5507 5512 5516 5520 5522 5523 5525 5526 5527 5528 5530 5532 5533 5534 5535 5536 5536 5537 5538 5538 5537 5536
5373 5378 5380 5382 5382 5382 5387 5388 5391 5393 5395 5396 5398 5402 5404 5406 5412 5417 5423 5433 5441 5449 5455 5463 5471 5476 5481 5487 5491 5495 5498 5501 5505 5509 5513 5516 5517 5518 5519 5520 5521 5522 5523 5524 5524 5525 5525 5526 5525 5525 5526 5526 5524 5523
5383 5387 5389 5388 5391 5394 5395 5396 5398 5401 5402 5404 5408 5410 5412 5416 5419 5425 5432 5440 5448 5454 5462 5468 5474 5479 5484 5487 5491 5495 5498 5499 5502 5506 5509 5511 5512 5513 5513 5513 5514 5514 5514 5515 5515 5515 5515 5514 5513 5514 5513 5511 5510 5508
5392 5394 5396 5397 5399 5401 5403 5405 5407 5409 5410 5412 5412 5416 5421 5426 5429 5434 5439 5445 5452 5458 5464 5469 5474 5479 5483 5486 5490 5492 5495 5497 5500 5501 5502 5504 5504 5504 5504 5504 5505 5505 5504 5505 5505 5504 5502 5501 5500 5499 5498 5498 5497 5494
5402 5404 5406 5407 5407 5409 5411 5414 5414 5415 5416 5418 5420 5422 5426 5431 5436 5440 5444 5450 5456 5460 5465 5471 5476 5479 5484 5486 5488 5490 5492 5494 5495 5496 5496 5496 5496 5497 5497 5496 5496 5497 5497 5496 5496 5495 5494 5492 5491 5489 5488 5486 5484 5482
5412 5414 5415 5415 5415 5418 5419 5421 5422 5423 5425 5427 5429 5432 5434 5439 5442 5447 5451 5456 5461 5465 5470 5473 5478 5481 5483 5485 5486 5487 5488 5489 5489 5489 5489 5489 5489 5488 5488 5487 5487 5487 5486 5486 5485 5484 5483 5481 5479 5477 5475 5473 5471 5468
5423 5423 5424 5424 5425 5426 5427 5428 5430 5432 5434 5437 5439 5441 5444 5448 5451 5455 5459 5463 5467 5470 5474 5476 5478 5480 5481 5482 5482 5483 5483 5484 5484 5484 5483 5483 5482 5481 5481 5479 5479 5478 5477 5476 5474 5473 5471 5469 5467 5464 5462 5458 5455 5451
5429 5430 5432 5433 5434 5434 5437 5438 5439 5442 5443 5445 5447 5449 5451 5454 5457 5461 5464 5467 5470 5473 5474 5476 5477 5478 5479 5480 5480 5480 5480 5480 5479 5478 5477 5475 5474 5473 5472 5470 5468 5467 5465 5463 5461 5459 5457 5454 5451 5448 5445 5441 5437 5433
5435 5436 5437 5438 5440 5441 5444 5445 5448 5449 5451 5452 5454 5455 5457 5460 5462 5464 5467 5469 5471 5472 5473 5475 5476 5476 5476 5476 5476 5475 5474 5473 5471 5470 5468 5466 5464 5462 5460 5458 5455 5453 5451 5448 5445 5442 5440 5437 5434 5430 5426 5422 5418 5414
5438 5440 5441 5441 5443 5446 5449 5451 5452 5454 5455 5456 5458 5459 5461 5463 5465 5466 5468 5469 5470 5472 5473 5473 5473 5473 5473 5472 5471 5470 5468 5465 5463 5461 5458 5455 5453 5450 5447 5444 5442 5439 5436 5432 5429 5426 5422 5418 5415 5411 5407 5403 5398 5393
5441 5443 5444 5446 5448 5450 5452 5453 5453 5455 5457 5458 5459 5460 5461 5462 5463 5465 5466 5466 5467 5468 5468 5467 5467 5466 5464 5463 5460 5458 5456 5454 5452 5449 5447 5443 5440 5436 5433 5430 5426 5422 5418 5415 5411 5408 5404 5400 5396 5392 5388 5383 5379 5374
5443 5444 5445 5446 5448 5450 5451 5452 5453 5455 5456 5457 5458 5459 5460 5460 5461 5462 5462 5462 5462 5461 5460 5459 5458 5456 5454 5451 5449 5446 5443 5439 5435 5431 5427 5423 5419 5415 5412 5408 5405 5403 5400 5397 5393 5390 5386 5383 5379 5374 5370 5366 5361 5356
5445 5446 5448 5449 5450 5451 5452 5453 5454 5455 5456 5457 5458 5458 5458 5459 5459 5459 5458 5458 5457 5455 5453 5451 5448 5445 5442 5439 5435 5431 5427 5422 5417 5412 5408 5403 5400 5396 5393 5390 5387 5384 5382 5379 5376 5373 5370 5366 5362 5358 5353 5347 5342 5337
5445 5446 5450 5450 5451 5453 5453 5454 5454 5455 5456 5456 5456 5456 5456 5455 5455 5454 5453 5451 5449 5447 5444 5441 5438 5434 5430 5425 5419 5413 5407 5402 5397 5393 5390 5387 5384 5382 5379 5376 5374 5370 5367 5364 5361 5357 5353 5349 5345 5341 5336 5331 5326 5321
5445 5447 5448 5449 5450 5452 5452 5453 5453 5454 5453 5453 5452 5452 5451 5450 5448 5447 5445 5443 5440 5437 5433 5429 5423 5417 5411 5404 5398 5393 5389 5385 5382 5379 5375 5373 5370 5367 5364 5361 5358 5355 5352 5349 5345 5342 5339 5335 5331 5327 5323 5319 5315 5310
5445 5446 5447 5448 5449 5449 5450 5450 5450 5449 5449 5448 5447 5445 5444 5442 5440 5437 5434 5431 5427 5422 5416 5409 5402 5396 5391 5386 5381 5377 5373 5370 5367 5364 5361 5359 5356 5354 5351 5348 5346 5343 5340 5337 5335 5332 5329 5325 5322 5319 5314 5310 5305 5299
5443 5444 5445 5445 5446 5446 5446 5445 5445 5444 5442 5441 5439 5437 5435 5432 5428 5425 5420 5416 5410 5404 5397 5391 5385 5379 5374 5370 5366 5363 5360 5358 5356 5354 5352 5350 5347 5345 5342 5340 5338 5335 5333 5331 5329 5326 5323 5319 5315 5311 5306 5300 5294 5287
5440 5441 5441 5441 5441 5441 5440 5440 5438 5435 5433 5432 5430 5427 5424 5420 5416 5411 5406 5400 5393 5387 5381 5375 5369 5365 5362 5359 5357 5354 5352 5350 5348 5347 5344 5342 5340 5338 5336 5334 5333 5331 5329 5327 5324 5320 5317 5313 5308 5303 5297 5290 5284 5278
5435 5435 5435 5435 5434 5433 5432 5430 5428 5427 5425 5422 5419 5416 5412 5407 5402 5397 5392 5386 5380 5374 5368 5364 5360 5357 5354 5351 5349 5346 5344 5342 5340 5338 5337 5335 5334 5333 5332 5331 5329 5327 5324 5322 5318 5314 5310 5306 5301 5295 5289 5282 5276 5270
5429 5429 5428 5428 5426 5425 5423 5422 5420 5417 5415 5412 5409 5405 5400 5395 5391 5385 5380 5374 5367 5363 5358 5354 5351 5347 5344 5341 5339 5337 5336 5335 5334 5333 5333 5332 5332 5331 5329 5327 5325 5323 5319 5316 5312 5308 5303 5298 5293 5288 5282 5276 5269 5263
5422 5422 5421 5420 5418 5417 5415 5414 5411 5408 5405 5401 5398 5393 5388 5384 5379 5374 5367 5362 5357 5353 5348 5344 5340 5336 5333 5331 5330 5329 5329 5330 5331 5331 5331 5331 5330 5328 5326 5324 5321 5318 5314 5310 5306 5301 5297 5292 5286 5281 5275 5269 5263 5256